,,PA_Meas_PMT16A,,PR_Meas_QMR101_102,,RH_Meas_QMH101,,SR_Meas_QMS101,,TA_Meas_QMH101,,GenWind,,GenWind,
time,status,PA,status,PR,status,RH,status,SR,status,TA,status,DirAvg,status,SpdAvg,
2016-09-03, 00:00:04,VALID,916.317,VALID,0,INVALID,115.243,VALID,55.5471,VALID,23.0746,VALID,17,VALID,0,
2016-09-03, 00:03:04,VALID,916.382,VALID,0,INVALID,114.184,VALID,55.4396,VALID,23.016,VALID,23,VALID,0,
2016-09-03, 00:05:04,VALID,916.42,VALID,0,INVALID,114.931,VALID,42.6541,VALID,22.9575,VALID,21,VALID,0,
2016-09-03, 00:07:04,VALID,916.444,VALID,0,INVALID,115.594,VALID,40.3979,VALID,22.8794,VALID,23,VALID,0,
2016-09-03, 00:08:04,VALID,916.495,VALID,0,INVALID,115.762,VALID,39.3235,VALID,22.8209,VALID,23,VALID,0,
2016-09-03, 00:11:04,VALID,916.41,VALID,0,INVALID,115.845,VALID,43.2988,VALID,22.8209,VALID,17,VALID,0,
2016-09-03, 00:12:04,VALID,916.405,VALID,0,INVALID,115.533,VALID,44.9104,VALID,22.8226,VALID,350,VALID,0,
2016-09-03, 00:13:04,VALID,916.451,VALID,0,INVALID,115.54,VALID,44.803,VALID,22.7836,VALID,350,VALID,0,
2016-09-03, 00:14:04,VALID,916.474,VALID,0,INVALID,115.777,VALID,47.8113,VALID,22.7641,VALID,350,VALID,0,
2016-09-03, 00:15:04,VALID,916.491,VALID,0,INVALID,115.975,VALID,48.6708,VALID,22.7641,VALID,34,VALID,0,
2016-09-03, 00:17:04,VALID,916.583,VALID,0,INVALID,115.67,VALID,53.6131,VALID,22.7233,VALID,24,VALID,0,
2016-09-03, 00:18:04,VALID,916.558,VALID,0,INVALID,115.945,VALID,55.2248,VALID,22.663,VALID,1,VALID,0,
2016-09-03, 00:19:04,VALID,916.56,VALID,0,INVALID,116.211,VALID,56.9438,VALID,22.7038,VALID,3,VALID,0,
2016-09-03, 00:20:04,VALID,916.578,VALID,0,INVALID,116.272,VALID,63.4977,VALID,22.7038,VALID,3,VALID,0,
2016-09-03, 00:21:04,VALID,916.589,VALID,0,INVALID,116.28,VALID,60.8117,VALID,22.6843,VALID,19,VALID,0,
2016-09-03, 00:22:04,VALID,916.6,VALID,0,INVALID,115.807,VALID,61.5638,VALID,22.6452,VALID,20,VALID,0,
2016-09-03, 00:23:04,VALID,916.627,VALID,0,INVALID,116.112,VALID,56.2992,VALID,22.6062,VALID,20,VALID,0,
2016-09-03, 00:24:04,VALID,916.62,VALID,0,INVALID,116.067,VALID,55.8694,VALID,22.5867,VALID,21,VALID,0.0941406,
2016-09-03, 00:25:04,VALID,916.642,VALID,0,INVALID,115.952,VALID,56.1917,VALID,22.5672,VALID,18,VALID,0.28125,
2016-09-03, 00:26:04,VALID,916.654,VALID,0,INVALID,116.112,VALID,57.9108,VALID,22.5477,VALID,3,VALID,0,
2016-09-03, 00:27:04,VALID,916.652,VALID,0,INVALID,115.647,VALID,64.5721,VALID,22.4696,VALID,295,VALID,0.380859,
2016-09-03, 00:28:04,VALID,916.658,VALID,0,INVALID,115.876,VALID,65.9689,VALID,22.4713,VALID,16,VALID,0.180859,
2016-09-03, 00:29:04,VALID,916.695,VALID,0,INVALID,116.074,VALID,63.2828,VALID,22.4306,VALID,18,VALID,0.529297,
2016-09-03, 00:31:04,VALID,916.744,VALID,0,INVALID,115.983,VALID,54.1503,VALID,22.3737,VALID,358,VALID,0.0213816,
2016-09-03, 00:33:04,VALID,916.822,VALID,0,INVALID,115.945,VALID,43.9434,VALID,22.255,VALID,4,VALID,2.65547,
2016-09-03, 14:01:04,VALID,918.636,VALID,0,INVALID,110.928,VALID,91.325,VALID,18.1459,VALID,110,VALID,0,
2016-09-03, 14:02:04,VALID,918.65,VALID,0,INVALID,110.951,VALID,90.1431,VALID,18.1849,VALID,110,VALID,0,
2016-09-03, 14:03:04,VALID,918.682,VALID,0,INVALID,110.951,VALID,87.4571,VALID,18.1654,VALID,106,VALID,0,
2016-09-03, 14:11:04,VALID,918.702,VALID,0,INVALID,110.989,VALID,89.6059,VALID,18.1264,VALID,93,VALID,0,
2016-09-03, 14:12:04,VALID,918.716,VALID,0,INVALID,111.012,VALID,89.9282,VALID,18.1445,VALID,92,VALID,0,
2016-09-03, 14:16:04,VALID,919.891,VALID,0,INVALID,110.905,VALID,104.648,VALID,18.3004,VALID,93,VALID,0,
2016-09-03, 14:17:04,VALID,919.755,VALID,0,INVALID,110.883,VALID,107.871,VALID,18.3993,VALID,102,VALID,0,
2016-09-03, 14:18:04,VALID,919.421,VALID,0,INVALID,110.86,VALID,112.383,VALID,18.4773,VALID,123,VALID,0,
2016-09-03, 14:19:04,VALID,918.892,VALID,0,INVALID,110.867,VALID,115.714,VALID,18.4564,VALID,128,VALID,0,
2016-09-03, 14:20:04,VALID,918.908,VALID,0,INVALID,110.844,VALID,119.582,VALID,18.4564,VALID,109,VALID,0,
2016-09-03, 14:21:04,VALID,918.804,VALID,0,INVALID,110.844,VALID,128.822,VALID,18.5163,VALID,132,VALID,0,
2016-09-03, 14:22:04,VALID,918.658,VALID,0,INVALID,110.867,VALID,113.243,VALID,18.4369,VALID,138,VALID,0,
2016-09-03, 14:23:04,VALID,918.092,VALID,0,INVALID,110.89,VALID,110.342,VALID,18.3993,VALID,130,VALID,0,
2016-09-03, 14:24:04,VALID,918.875,VALID,0,INVALID,110.921,VALID,120.764,VALID,18.3199,VALID,132,VALID,0,
2016-09-03, 14:25:04,VALID,919.133,VALID,0,INVALID,110.898,VALID,122.698,VALID,18.3603,VALID,130,VALID,0,
2016-09-03, 14:26:04,VALID,918.77,VALID,0,INVALID,110.913,VALID,128.285,VALID,18.3784,VALID,132,VALID,0,
2016-09-03, 14:27:04,VALID,918.78,VALID,0,INVALID,110.883,VALID,136.987,VALID,18.4773,VALID,137,VALID,0,
2016-09-03, 14:28:04,VALID,918.793,VALID,0,INVALID,110.844,VALID,149.021,VALID,18.5149,VALID,147,VALID,0,
2016-09-03, 14:29:04,VALID,918.811,VALID,0,INVALID,110.822,VALID,158.153,VALID,18.5734,VALID,136,VALID,0,
2016-09-03, 14:30:04,VALID,918.801,VALID,0,INVALID,110.814,VALID,157.401,VALID,18.6333,VALID,148,VALID,0,
2016-09-03, 14:31:04,VALID,918.841,VALID,0,INVALID,110.837,VALID,161.914,VALID,18.5734,VALID,152,VALID,0,
2016-09-03, 14:32:04,VALID,918.807,VALID,0,INVALID,110.829,VALID,164.278,VALID,18.5734,VALID,156,VALID,0,
2016-09-03, 14:33:04,VALID,918.804,VALID,0,INVALID,110.837,VALID,164.6,VALID,18.6124,VALID,155,VALID,0,
2016-09-03, 14:34:04,VALID,918.832,VALID,0,INVALID,110.837,VALID,164.063,VALID,18.5734,VALID,153,VALID,0,
2016-09-03, 14:35:04,VALID,918.829,VALID,0,INVALID,110.837,VALID,166.319,VALID,18.5149,VALID,145,VALID,0,
2016-09-03, 14:36:04,VALID,918.818,VALID,0,INVALID,110.837,VALID,162.773,VALID,18.5344,VALID,143,VALID,0,
2016-09-03, 14:37:04,VALID,918.867,VALID,0,INVALID,110.799,VALID,165.352,VALID,18.6319,VALID,129,VALID,0,
2016-09-03, 14:38:04,VALID,918.895,VALID,0,INVALID,110.783,VALID,170.294,VALID,18.7293,VALID,145,VALID,0,
2016-09-03, 14:39:04,VALID,918.865,VALID,0,INVALID,110.822,VALID,177.923,VALID,18.6319,VALID,157,VALID,0.0175781,
2016-09-03, 14:40:04,VALID,918.91,VALID,0,INVALID,110.829,VALID,181.253,VALID,18.5914,VALID,160,VALID,0,
2016-09-03, 14:41:04,VALID,918.891,VALID,0,INVALID,110.829,VALID,182.328,VALID,18.5914,VALID,160,VALID,0,
2016-09-03, 14:42:04,VALID,918.911,VALID,0,INVALID,110.844,VALID,182.757,VALID,18.6124,VALID,165,VALID,0,
2016-09-03, 14:43:04,VALID,918.916,VALID,0,INVALID,110.837,VALID,184.262,VALID,18.6124,VALID,164,VALID,0,
2016-09-03, 14:44:04,VALID,918.917,VALID,0,INVALID,110.844,VALID,185.014,VALID,18.6708,VALID,155,VALID,0,
2016-09-03, 14:45:04,VALID,918.911,VALID,0,INVALID,110.822,VALID,186.518,VALID,18.6109,VALID,159,VALID,0,
2016-09-03, 14:46:04,VALID,918.934,VALID,0,INVALID,110.829,VALID,183.832,VALID,18.5734,VALID,159,VALID,0,
2016-09-03, 14:47:04,VALID,918.956,VALID,0,INVALID,110.86,VALID,186.088,VALID,18.6124,VALID,162,VALID,0,
2016-09-03, 14:48:04,VALID,918.945,VALID,0,INVALID,110.837,VALID,185.443,VALID,18.6124,VALID,150,VALID,0,
2016-09-03, 14:49:04,VALID,918.948,VALID,0,INVALID,110.814,VALID,184.691,VALID,18.6723,VALID,152,VALID,0,
2016-09-03, 14:50:04,VALID,918.991,VALID,0,INVALID,110.791,VALID,183.939,VALID,18.8073,VALID,144,VALID,0,
2016-09-03, 14:51:04,VALID,918.988,VALID,0,INVALID,110.814,VALID,181.038,VALID,18.7683,VALID,144,VALID,0,
2016-09-03, 14:52:04,VALID,918.971,VALID,0,INVALID,110.837,VALID,182.865,VALID,18.6513,VALID,145,VALID,0,
2016-09-03, 14:53:04,VALID,918.982,VALID,0,INVALID,110.86,VALID,190.063,VALID,18.6499,VALID,142,VALID,0,
2016-09-03, 14:54:04,VALID,918.969,VALID,0,INVALID,110.86,VALID,197.907,VALID,18.7098,VALID,157,VALID,0,
2016-09-03, 14:55:04,VALID,918.98,VALID,0,INVALID,110.86,VALID,206.932,VALID,18.7488,VALID,162,VALID,1.32266,
2016-09-03, 14:56:04,VALID,919.006,VALID,0,INVALID,110.837,VALID,213.808,VALID,18.8658,VALID,150,VALID,0.0417969,
2016-09-03, 14:57:04,VALID,919.022,VALID,0,INVALID,110.86,VALID,218.32,VALID,18.7669,VALID,153,VALID,0,
2016-09-03, 14:58:04,VALID,919.045,VALID,0,INVALID,110.875,VALID,221.329,VALID,18.8073,VALID,157,VALID,0,
2016-09-03, 14:59:04,VALID,919.057,VALID,0,INVALID,110.844,VALID,228.098,VALID,18.8839,VALID,150,VALID,1.1293,
2016-09-03, 15:00:04,VALID,919.062,VALID,0,INVALID,110.837,VALID,237.552,VALID,18.9229,VALID,161,VALID,1.54531,
2016-09-03, 15:01:04,VALID,919.114,VALID,0,INVALID,110.829,VALID,253.131,VALID,18.9814,VALID,157,VALID,1.41602,
2016-09-03, 15:02:04,VALID,919.092,VALID,0,INVALID,110.822,VALID,272.686,VALID,19.0608,VALID,155,VALID,1.7043,
2016-09-03, 15:03:04,VALID,919.109,VALID,0,INVALID,110.822,VALID,288.802,VALID,19.1373,VALID,155,VALID,1.22187,
2016-09-03, 15:04:04,VALID,919.117,VALID,0,INVALID,110.738,VALID,296.86,VALID,19.3713,VALID,110,VALID,0,
2016-09-03, 15:05:04,VALID,919.115,VALID,0,INVALID,110.7,VALID,300.405,VALID,19.5273,VALID,125,VALID,0,
2016-09-03, 15:06:04,VALID,919.138,VALID,0,INVALID,110.669,VALID,306.744,VALID,19.5078,VALID,157,VALID,0,
2016-09-03, 15:07:04,VALID,919.137,VALID,0,INVALID,110.799,VALID,310.397,VALID,19.3128,VALID,155,VALID,0,
2016-09-03, 15:08:04,VALID,919.159,VALID,0,INVALID,110.822,VALID,314.158,VALID,19.3713,VALID,159,VALID,0,
2016-09-03, 15:09:04,VALID,919.146,VALID,0,INVALID,110.951,VALID,313.084,VALID,19.2139,VALID,148,VALID,0,
2016-09-03, 15:10:04,VALID,919.135,VALID,0,INVALID,110.989,VALID,309.108,VALID,19.2738,VALID,153,VALID,0,
2016-09-03, 15:11:04,VALID,919.151,VALID,0,INVALID,111.02,VALID,307.604,VALID,19.2933,VALID,161,VALID,0.328125,
2016-09-03, 15:12:04,VALID,919.109,VALID,0,INVALID,111.02,VALID,306.744,VALID,19.2918,VALID,151,VALID,0.378125,
2016-09-03, 15:13:04,VALID,919.093,VALID,0,INVALID,111.073,VALID,324.795,VALID,19.2933,VALID,155,VALID,1.07539,
2016-09-03, 15:14:04,VALID,919.11,VALID,0,INVALID,111.134,VALID,333.39,VALID,19.2528,VALID,159,VALID,1.30898,
2016-09-03, 15:15:04,VALID,919.107,VALID,0,INVALID,111.142,VALID,344.564,VALID,19.2904,VALID,144,VALID,0.318359,
2016-09-03, 15:16:04,VALID,919.124,VALID,0,INVALID,111.157,VALID,349.721,VALID,19.2933,VALID,153,VALID,1.37852,
2016-09-03, 15:17:04,VALID,919.133,VALID,0,INVALID,111.142,VALID,354.341,VALID,19.3908,VALID,153,VALID,1.75937,
2016-09-03, 15:18:04,VALID,919.113,VALID,0,INVALID,111.142,VALID,357.994,VALID,19.4088,VALID,151,VALID,1.08164,
2016-09-03, 15:19:04,VALID,919.132,VALID,0,INVALID,111.157,VALID,360.143,VALID,19.5468,VALID,164,VALID,0.392969,
2016-09-03, 15:20:04,VALID,919.103,VALID,0,INVALID,111.241,VALID,364.548,VALID,19.5063,VALID,151,VALID,0.140234,
2016-09-03, 15:21:04,VALID,919.139,VALID,0,INVALID,111.233,VALID,368.201,VALID,19.6623,VALID,125,VALID,0.373047,
2016-09-03, 15:22:04,VALID,919.143,VALID,0,INVALID,111.264,VALID,364.978,VALID,19.7403,VALID,153,VALID,0.0535156,
2016-09-03, 15:23:04,VALID,919.194,VALID,0,INVALID,111.34,VALID,366.912,VALID,19.7988,VALID,149,VALID,0.807422,
2016-09-03, 15:24:04,VALID,919.203,VALID,0,INVALID,111.325,VALID,363.473,VALID,19.9743,VALID,170,VALID,0.180078,
2016-09-03, 15:25:04,VALID,919.178,VALID,0,INVALID,111.409,VALID,362.721,VALID,20.0133,VALID,170,VALID,0.0683594,
2016-09-03, 15:26:04,VALID,919.195,VALID,0,INVALID,111.515,VALID,364.655,VALID,20.0523,VALID,148,VALID,0.422266,
2016-09-03, 15:27:04,VALID,919.188,VALID,0,INVALID,111.927,VALID,375.077,VALID,19.8378,VALID,149,VALID,1.18477,
2016-09-03, 15:28:04,VALID,919.173,VALID,0,INVALID,111.957,VALID,378.945,VALID,19.8768,VALID,141,VALID,0.661719,
2016-09-03, 15:29:04,VALID,919.226,VALID,0,INVALID,112.14,VALID,384.424,VALID,19.8168,VALID,155,VALID,1.37539,
2016-09-03, 15:30:04,VALID,919.176,VALID,0,INVALID,112.194,VALID,388.722,VALID,19.9353,VALID,157,VALID,1.38125,
2016-09-03, 15:31:04,VALID,919.23,VALID,0,INVALID,112.369,VALID,393.449,VALID,19.9143,VALID,150,VALID,1.45938,
2016-09-03, 15:32:04,VALID,919.189,VALID,0,INVALID,112.476,VALID,392.59,VALID,19.9923,VALID,162,VALID,1.44453,
2016-09-03, 15:33:04,VALID,919.185,VALID,0,INVALID,112.88,VALID,392.59,VALID,19.9533,VALID,156,VALID,1.31914,
2016-09-03, 15:34:04,VALID,919.169,VALID,0,INVALID,112.59,VALID,402.152,VALID,20.2263,VALID,168,VALID,0.441016,
2016-09-03, 15:35:04,VALID,919.152,VALID,0,INVALID,112.56,VALID,402.904,VALID,20.3823,VALID,183,VALID,0.183594,
2016-09-03, 15:36:04,VALID,919.193,VALID,0,INVALID,112.91,VALID,413.971,VALID,20.4213,VALID,172,VALID,0.403125,
2016-09-03, 15:37:04,VALID,919.152,VALID,0,INVALID,113.17,VALID,406.772,VALID,20.4603,VALID,147,VALID,0.782422,
2016-09-03, 15:38:04,VALID,919.172,VALID,0,INVALID,113.238,VALID,414.615,VALID,20.6163,VALID,150,VALID,0.308984,
2016-09-03, 15:39:04,VALID,919.156,VALID,0,INVALID,113.49,VALID,415.045,VALID,20.6358,VALID,142,VALID,0.193359,
2016-09-03, 15:40:04,VALID,919.206,VALID,0,INVALID,113.665,VALID,433.31,VALID,20.7333,VALID,167,VALID,0,
2016-09-03, 15:41:04,VALID,919.247,VALID,0,INVALID,114.298,VALID,432.451,VALID,20.6943,VALID,143,VALID,0.449609,
2016-09-03, 15:42:04,VALID,919.293,VALID,0,INVALID,114.542,VALID,439.112,VALID,20.7528,VALID,150,VALID,0.824609,
2016-09-03, 15:43:04,VALID,919.285,VALID,0,INVALID,115.098,VALID,443.302,VALID,20.7513,VALID,159,VALID,0.615625,
2016-09-03, 15:44:04,VALID,919.31,VALID,0,INVALID,115.594,VALID,448.03,VALID,20.7918,VALID,154,VALID,0,
2016-09-03, 15:45:04,VALID,919.335,VALID,0,INVALID,116.173,VALID,453.509,VALID,20.8488,VALID,148,VALID,0,
2016-09-03, 15:46:04,VALID,919.382,VALID,0,INVALID,116.547,VALID,455.765,VALID,21.0064,VALID,133,VALID,0,
2016-09-03, 15:47:04,VALID,919.396,VALID,0,INVALID,117.088,VALID,453.939,VALID,21.1039,VALID,142,VALID,0,
2016-09-03, 15:48:04,VALID,919.421,VALID,0,INVALID,117.332,VALID,458.774,VALID,21.1819,VALID,148,VALID,0,
2016-09-03, 15:49:04,VALID,919.415,VALID,0,INVALID,116.478,VALID,468.121,VALID,21.3754,VALID,146,VALID,0,
2016-09-03, 15:50:04,VALID,919.456,VALID,0,INVALID,115.037,VALID,473.708,VALID,21.6501,VALID,146,VALID,0,
2016-09-03, 15:51:04,VALID,919.451,VALID,0,INVALID,111.515,VALID,470.592,VALID,21.7867,VALID,152,VALID,0,
2016-09-03, 15:52:04,VALID,919.461,VALID,0,VALID,96.8936,VALID,472.311,VALID,22.0582,VALID,149,VALID,0,
2016-09-03, 15:53:04,VALID,919.484,VALID,0,VALID,84.6275,VALID,479.617,VALID,22.1947,VALID,134,VALID,0,
2016-09-03, 15:54:04,VALID,919.523,VALID,0,VALID,87.5397,VALID,480.799,VALID,22.333,VALID,134,VALID,0,
2016-09-03, 15:55:04,VALID,919.512,VALID,0,VALID,89.3693,VALID,483.915,VALID,22.5281,VALID,135,VALID,0,
2016-09-03, 15:56:04,VALID,919.482,VALID,0,VALID,88.1953,VALID,490.254,VALID,22.7216,VALID,135,VALID,0,
2016-09-03, 15:57:04,VALID,919.503,VALID,0,VALID,83.1257,VALID,485.741,VALID,22.8989,VALID,114,VALID,0,
2016-09-03, 15:58:04,VALID,919.517,VALID,0,VALID,84.8715,VALID,490.254,VALID,23.0338,VALID,114,VALID,0,
2016-09-03, 15:59:04,VALID,919.539,VALID,0,VALID,83.9186,VALID,487.783,VALID,23.229,VALID,116,VALID,0,
2016-09-03, 16:00:04,VALID,919.54,VALID,0,VALID,82.5921,VALID,498.419,VALID,23.229,VALID,212,VALID,0,
2016-09-03, 16:01:04,VALID,919.531,VALID,0,VALID,82.8208,VALID,507.445,VALID,23.2485,VALID,212,VALID,0,
2016-09-03, 16:02:04,VALID,919.534,VALID,0,VALID,82.4015,VALID,512.602,VALID,23.229,VALID,212,VALID,0,
2016-09-03, 16:03:04,VALID,919.531,VALID,0,VALID,82.4854,VALID,524.743,VALID,23.2875,VALID,212,VALID,0,
2016-09-03, 16:04:04,VALID,919.549,VALID,0,VALID,82.3253,VALID,526.462,VALID,23.4224,VALID,212,VALID,0,
2016-09-03, 16:05:04,VALID,919.59,VALID,0,VALID,80.1602,VALID,527.106,VALID,23.5998,VALID,224,VALID,0,
2016-09-03, 16:06:04,VALID,919.566,VALID,0,VALID,78.1934,VALID,533.016,VALID,23.5395,VALID,223,VALID,0,
2016-09-03, 16:07:04,VALID,919.567,VALID,0,VALID,79.2912,VALID,537.958,VALID,23.4809,VALID,222,VALID,0,
2016-09-03, 16:08:04,VALID,919.591,VALID,0,VALID,77.4387,VALID,535.164,VALID,23.4614,VALID,230,VALID,0,
2016-09-03, 16:09:04,VALID,919.595,VALID,0,VALID,78.079,VALID,536.454,VALID,23.5199,VALID,201,VALID,0,
2016-09-03, 16:10:04,VALID,919.599,VALID,0,VALID,76.8974,VALID,549.239,VALID,23.6388,VALID,211,VALID,0,
2016-09-03, 16:11:04,VALID,919.62,VALID,0,VALID,78.2849,VALID,559.016,VALID,23.6566,VALID,230,VALID,0.0785156,
2016-09-03, 16:12:04,VALID,919.628,VALID,0,VALID,77.9113,VALID,565.355,VALID,23.6388,VALID,235,VALID,0,
2016-09-03, 16:13:04,VALID,919.601,VALID,0,VALID,78.0104,VALID,555.578,VALID,23.5998,VALID,290,VALID,0,
2016-09-03, 16:14:04,VALID,919.616,VALID,0,VALID,81.258,VALID,548.809,VALID,23.7346,VALID,290,VALID,0,
2016-09-03, 16:15:04,VALID,919.63,VALID,0,VALID,77.6597,VALID,547.735,VALID,23.9298,VALID,237,VALID,0,
2016-09-03, 16:16:04,VALID,919.618,VALID,0,VALID,77.9189,VALID,552.462,VALID,23.7737,VALID,236,VALID,0.0613281,
2016-09-03, 16:17:04,VALID,919.61,VALID,0,VALID,78.0562,VALID,558.049,VALID,23.6938,VALID,211,VALID,0,
2016-09-03, 16:18:04,VALID,919.611,VALID,0,VALID,78.0409,VALID,560.628,VALID,23.8109,VALID,199,VALID,0,
2016-09-03, 16:19:04,VALID,919.59,VALID,0,VALID,76.966,VALID,561.38,VALID,23.9493,VALID,148,VALID,0,
2016-09-03, 16:20:04,VALID,919.616,VALID,0,VALID,74.9229,VALID,565.14,VALID,24.1037,VALID,174,VALID,0,
2016-09-03, 16:21:04,VALID,919.586,VALID,0,VALID,75.6929,VALID,565.355,VALID,24.1427,VALID,156,VALID,0,
2016-09-03, 16:22:04,VALID,919.599,VALID,0,VALID,75.9445,VALID,569.438,VALID,24.3574,VALID,156,VALID,0,
2016-09-03, 16:23:04,VALID,919.636,VALID,0,VALID,73.3601,VALID,573.951,VALID,24.6326,VALID,133,VALID,0,
2016-09-03, 16:24:04,VALID,919.645,VALID,0,VALID,72.8341,VALID,578.893,VALID,24.8278,VALID,104,VALID,0,
2016-09-03, 16:25:04,VALID,919.641,VALID,0,VALID,67.9551,VALID,581.257,VALID,24.6716,VALID,227,VALID,0,
2016-09-03, 16:26:04,VALID,919.658,VALID,0,VALID,70.3641,VALID,582.438,VALID,24.4178,VALID,227,VALID,0,
2016-09-03, 16:27:04,VALID,919.642,VALID,0,VALID,73.2229,VALID,585.877,VALID,24.4764,VALID,271,VALID,0,
2016-09-03, 16:28:04,VALID,919.663,VALID,0,VALID,71.3018,VALID,588.563,VALID,24.6326,VALID,271,VALID,0,
2016-09-03, 16:29:04,VALID,919.674,VALID,0,VALID,68.9309,VALID,592.968,VALID,24.4959,VALID,279,VALID,0,
2016-09-03, 16:30:04,VALID,919.68,VALID,0,VALID,70.4556,VALID,592.968,VALID,24.3202,VALID,273,VALID,0,
2016-09-03, 16:31:04,VALID,919.688,VALID,0,VALID,71.4771,VALID,597.48,VALID,24.1055,VALID,263,VALID,0,
2016-09-03, 16:32:04,VALID,919.707,VALID,0,VALID,71.5,VALID,599.307,VALID,23.9689,VALID,263,VALID,0,
2016-09-03, 16:33:04,VALID,919.707,VALID,0,VALID,73.7337,VALID,599.951,VALID,24.0079,VALID,263,VALID,0,
2016-09-03, 16:34:04,VALID,919.717,VALID,0,VALID,73.0171,VALID,601.885,VALID,24.1427,VALID,263,VALID,0,
2016-09-03, 16:35:04,VALID,919.726,VALID,0,VALID,72.087,VALID,605.968,VALID,24.1817,VALID,268,VALID,0,
2016-09-03, 16:36:04,VALID,919.737,VALID,0,VALID,71.6601,VALID,613.704,VALID,24.2013,VALID,256,VALID,0,
2016-09-03, 16:37:04,VALID,919.714,VALID,0,VALID,73.6041,VALID,619.828,VALID,24.1037,VALID,272,VALID,0,
2016-09-03, 16:38:04,VALID,919.748,VALID,0,VALID,70.3794,VALID,625.845,VALID,24.0646,VALID,249,VALID,0,
2016-09-03, 16:39:04,VALID,919.719,VALID,0,VALID,72.1633,VALID,639.705,VALID,24.0061,VALID,282,VALID,0,
2016-09-03, 16:40:04,VALID,919.713,VALID,0,VALID,72.3538,VALID,472.419,VALID,24.1232,VALID,285,VALID,0,
2016-09-03, 16:41:04,VALID,919.715,VALID,0,VALID,69.9601,VALID,198.874,VALID,24.3184,VALID,288,VALID,0,
2016-09-03, 16:42:04,VALID,919.716,VALID,0,VALID,69.3121,VALID,171.369,VALID,24.3769,VALID,287,VALID,0,
2016-09-03, 16:43:04,VALID,919.718,VALID,0,VALID,70.448,VALID,240.131,VALID,24.455,VALID,287,VALID,0,
2016-09-03, 16:44:04,VALID,919.721,VALID,0,VALID,68.4202,VALID,689.772,VALID,24.4532,VALID,287,VALID,0,
2016-09-03, 16:45:04,VALID,919.739,VALID,0,VALID,69.1291,VALID,653.027,VALID,24.5917,VALID,288,VALID,0,
2016-09-03, 16:46:04,VALID,919.732,VALID,0,VALID,68.9614,VALID,647.333,VALID,24.746,VALID,287,VALID,0,
2016-09-03, 16:47:04,VALID,919.72,VALID,0,VALID,63.9452,VALID,642.283,VALID,24.9217,VALID,288,VALID,0,
2016-09-03, 16:48:04,VALID,919.719,VALID,0,VALID,66.1026,VALID,641.746,VALID,25.0602,VALID,288,VALID,0,
2016-09-03, 16:49:04,VALID,919.685,VALID,0,VALID,66.7049,VALID,641.209,VALID,25.0974,VALID,278,VALID,0,
2016-09-03, 16:50:04,VALID,919.688,VALID,0,VALID,68.0771,VALID,651.523,VALID,25.1169,INVALID,360,VALID,0,
2016-09-03, 16:51:04,VALID,919.681,VALID,0,VALID,67.1775,VALID,640.134,VALID,25.2145,VALID,309,VALID,0,
2016-09-03, 16:52:04,VALID,919.685,VALID,0,VALID,66.6287,VALID,617.572,VALID,25.2926,VALID,4,VALID,0.928906,
2016-09-03, 16:53:04,VALID,919.683,VALID,0,VALID,66.6973,VALID,626.06,VALID,25.2926,VALID,293,VALID,0.128906,
2016-09-03, 16:54:04,VALID,919.719,VALID,0,VALID,66.1484,VALID,650.986,VALID,25.1364,VALID,318,VALID,0,
2016-09-03, 16:55:04,VALID,919.682,VALID,0,VALID,68.6184,VALID,654.102,VALID,24.9412,VALID,296,VALID,0,
2016-09-03, 16:56:04,VALID,919.678,VALID,0,VALID,66.4228,VALID,659.474,VALID,24.8045,VALID,306,VALID,0,
2016-09-03, 16:57:04,VALID,919.673,VALID,0,VALID,66.1712,VALID,667.639,VALID,24.8241,VALID,340,VALID,0.0109375,
2016-09-03, 16:58:04,VALID,919.666,VALID,0,VALID,68.1228,VALID,678.276,VALID,24.9588,VALID,5,VALID,0,
2016-09-03, 16:59:04,VALID,919.649,VALID,0,VALID,64.8372,VALID,678.061,VALID,25.1169,VALID,42,VALID,0.121094,
2016-09-03, 17:00:04,VALID,919.643,VALID,0,VALID,66.926,VALID,668.284,VALID,25.2731,VALID,32,VALID,0,
2016-09-03, 17:01:04,VALID,919.645,VALID,0,VALID,67.6654,VALID,671.4,VALID,25.4898,VALID,17,VALID,0.8,
2016-09-03, 17:02:04,VALID,919.63,VALID,0,VALID,64.1053,VALID,667.962,VALID,25.7046,VALID,2,VALID,0.333984,
2016-09-03, 17:03:04,VALID,919.634,VALID,0,VALID,62.8322,VALID,665.383,VALID,25.5679,VALID,354,VALID,0.203906,
2016-09-03, 17:04:04,VALID,919.604,VALID,0,VALID,68.3515,VALID,653.779,VALID,25.3336,VALID,360,VALID,0,
2016-09-03, 17:05:04,VALID,919.606,VALID,0,VALID,68.9919,VALID,661.515,VALID,25.4312,VALID,320,VALID,0,
2016-09-03, 17:06:04,VALID,919.617,VALID,0,VALID,61.9174,VALID,673.978,VALID,25.4507,VALID,294,VALID,0.280859,
2016-09-03, 17:07:04,VALID,919.607,VALID,0,VALID,64.5322,VALID,684.722,VALID,25.2145,VALID,303,VALID,0,
2016-09-03, 17:08:04,VALID,919.651,VALID,0,VALID,66.2704,VALID,692.243,VALID,25.1755,VALID,269,VALID,0,
2016-09-03, 17:09:04,VALID,919.668,VALID,0,VALID,66.0188,VALID,705.673,VALID,25.1755,VALID,266,VALID,0,
2016-09-03, 17:10:04,VALID,919.661,VALID,0,VALID,67.4672,VALID,700.624,VALID,25.3336,VALID,303,VALID,0,
2016-09-03, 17:11:04,VALID,919.672,VALID,0,VALID,64.7076,VALID,703.632,VALID,25.4898,VALID,291,VALID,0,
2016-09-03, 17:12:04,VALID,919.684,VALID,0,VALID,64.8524,VALID,698.045,VALID,25.5679,VALID,291,VALID,0,
2016-09-03, 17:13:04,VALID,919.689,VALID,0,VALID,67.5663,VALID,684.615,VALID,25.7026,VALID,303,VALID,0,
2016-09-03, 17:14:04,VALID,919.695,VALID,0,VALID,64.7304,VALID,644.862,VALID,25.7612,VALID,274,VALID,0,
2016-09-03, 17:15:04,VALID,919.645,VALID,0,VALID,66.9641,VALID,627.779,VALID,25.8003,VALID,275,VALID,0,
2016-09-03, 17:16:04,VALID,919.679,VALID,0,VALID,64.9363,VALID,649.159,VALID,25.9389,VALID,278,VALID,0,
2016-09-03, 17:17:04,VALID,919.654,VALID,0,VALID,64.0977,VALID,645.292,VALID,25.8003,VALID,310,VALID,0,
2016-09-03, 17:18:04,VALID,919.65,VALID,0,VALID,66.3618,VALID,639.275,VALID,25.6265,VALID,321,VALID,0,
2016-09-03, 17:19:04,VALID,919.621,VALID,0,VALID,69.2054,VALID,656.036,VALID,25.6245,VALID,321,VALID,0,
2016-09-03, 17:20:04,VALID,919.63,VALID,0,VALID,65.9502,VALID,641.316,VALID,25.6851,VALID,309,VALID,0,
2016-09-03, 17:21:04,VALID,919.632,VALID,0,VALID,66.278,VALID,636.589,VALID,25.5269,VALID,275,VALID,0,
2016-09-03, 17:22:04,VALID,919.648,VALID,0,VALID,64.6542,VALID,637.019,VALID,25.5464,VALID,249,VALID,0.372266,
2016-09-03, 17:23:04,VALID,919.611,VALID,0,VALID,63.6784,VALID,667.854,VALID,25.5464,VALID,245,VALID,0,
2016-09-03, 17:24:04,VALID,919.64,VALID,0,VALID,63.8309,VALID,659.689,VALID,25.605,VALID,246,VALID,0,
2016-09-03, 17:25:04,VALID,919.63,VALID,0,VALID,66.6439,VALID,680.21,VALID,25.6636,VALID,246,VALID,0,
2016-09-03, 17:26:04,VALID,919.606,VALID,0,VALID,65.165,VALID,718.566,VALID,25.7026,VALID,277,VALID,0,